Location: Newark
(50.8086°N, 4.3114°E)
Time: 11:21:06
(UTC+00:00)

XW-2D - Pass Details

Date: 29 January 2020
Orbit: 507 x 528 km, 97.5° (Epoch: 20 February)

Event Time Altitude Azimuth Distance (km) Brightness Sun altitude
Rises 04:50:03 0° 26° (NNE) 2,629 ? -24.2°
Reaches altitude 10° 04:52:36 10° 44° (NE) 1,735 ? -23.8°
Maximum altitude 04:55:23 20° 92° (E) 1,238 ? -23.4°
Drops below altitude 10° 04:58:08 10° 140° (SE) 1,722 ? -22.9°
Sets 05:00:39 0° 158° (SSE) 2,601 ? -22.5°
